Weather History for Waskish, MN

Change the Weather History Date:

Saturday, July 13, 2013

  Actual Average (KBDE) Record (KBDE)
Temperature  
Mean Temperature 78 °F -  
Max Temperature 89 °F 81 °F 103 °F (1936)
Min Temperature 68 °F 56 °F 42 °F (1950)
Cooling Degree Days 14    
Growing Degree Days 28 (Base 50)    
Moisture  
Dew Point 70 °F    
Average Humidity 83    
Maximum Humidity 100    
Minimum Humidity 55    
Precipitation  
Precipitation 0.00 in - - ()
Sea Level Pressure  
Sea Level Pressure 29.96 in    
Wind  
Wind Speed 2 mph (SE)    
Max Wind Speed 8 mph    
Max Gust Speed -    
Visibility 9 miles    
Events Fog    
Averages and records for this station are not official NWS values.
T = Trace of Precipitation, MM = Missing Value Source: NWS Daily Summary

Daily Weather History Graph

Daily Weather History Graph

Search for Another Location

Airport:

Trip Planner

Search our weather history database for the weather conditions in past years. The results will help you decide how hot, cold, wet, or windy it might be!

Date:

Astronomy

Jul. 13, 2013 Rise Set
Actual Time 5:31 AM CDT 9:15 PM CDT
Civil Twilight 4:52 AM CDT 9:54 PM CDT
Nautical Twilight 3:58 AM CDT 10:48 PM CDT
Astronomical Twilight 2:40 AM CDT 12:05 AM CDT
Moon 11:18 AM CDT (7/13) 11:24 PM CDT (7/13)
Length of Visible Light 17h 02m
Length of Day
15h 43m
Waxing Crescent, 26% of the Moon is Illuminated
Jul 13
Waxing Crescent
Jul 15
First Quarter
Jul 22
Full
Jul 29
Last Quarter
Aug 6
New

Hourly Weather History & Observations

Time (CDT) Temp. Heat Index Dew Point Humidity Pressure Visibility Wind Dir Wind Speed Gust Speed Precip Events Conditions
12:10 AM 71.6 °F - 69.8 °F 94% 29.86 in 10.0 mi Calm Calm - N/A   Overcast
12:29 AM 71.6 °F - 69.8 °F 94% 29.86 in 10.0 mi Calm Calm - N/A   Mostly Cloudy
12:50 AM 71.6 °F - 69.8 °F 94% 29.87 in 10.0 mi Calm Calm - N/A   Mostly Cloudy
1:10 AM 71.6 °F - 69.8 °F 94% 29.88 in 10.0 mi SW 3.5 mph - N/A   Mostly Cloudy
1:29 AM 71.6 °F - 69.8 °F 94% 29.87 in 10.0 mi SW 3.5 mph - N/A   Mostly Cloudy
1:50 AM 71.6 °F - 69.8 °F 94% 29.87 in 10.0 mi SW 3.5 mph - N/A   Overcast
2:10 AM 71.6 °F - 71.6 °F 100% 29.87 in 10.0 mi SW 3.5 mph - N/A   Overcast
2:29 AM 71.6 °F - 71.6 °F 100% 29.88 in 10.0 mi WSW 4.6 mph - N/A   Overcast
2:50 AM 71.6 °F - 71.6 °F 100% 29.88 in 10.0 mi West 3.5 mph - N/A   Overcast
3:10 AM 71.6 °F - 71.6 °F 100% 29.88 in 10.0 mi NW 4.6 mph - N/A   Overcast
3:29 AM 71.6 °F - 69.8 °F 94% 29.89 in 10.0 mi WNW 3.5 mph - N/A   Mostly Cloudy
3:50 AM 69.8 °F - 69.8 °F 100% 29.90 in 10.0 mi Calm Calm - N/A   Scattered Clouds
4:10 AM 69.8 °F - 68.0 °F 94% 29.90 in 10.0 mi Calm Calm - N/A   Mostly Cloudy
4:29 AM 69.8 °F - 68.0 °F 94% 29.91 in 1.2 mi Calm Calm - N/A   Overcast
4:50 AM 69.8 °F - 68.0 °F 94% 29.91 in 0.2 mi NNW 3.5 mph - N/A Fog Fog
5:09 AM 68.0 °F - 66.2 °F 94% 29.92 in 0.5 mi Calm Calm - N/A Fog Fog
5:29 AM 68.0 °F - 66.2 °F 94% 29.93 in 0.2 mi Calm Calm - N/A Fog Fog
5:50 AM 68.0 °F - 66.2 °F 94% 29.95 in 0.2 mi Calm Calm - N/A Fog Fog
6:09 AM 69.8 °F - 68.0 °F 94% 29.95 in 0.5 mi NNE 3.5 mph - N/A Fog Fog
6:29 AM 69.8 °F - 68.0 °F 94% 29.95 in 4.0 mi North 3.5 mph - N/A   Overcast
6:50 AM 69.8 °F - 68.0 °F 94% 29.96 in 7.0 mi ENE 4.6 mph - N/A   Overcast
7:09 AM 69.8 °F - 68.0 °F 94% 29.98 in 10.0 mi East 3.5 mph - N/A   Overcast
7:29 AM 69.8 °F - 68.0 °F 94% 29.98 in 10.0 mi Calm Calm - N/A   Overcast
7:50 AM 69.8 °F - 69.8 °F 100% 29.98 in 10.0 mi Calm Calm - N/A   Overcast
8:09 AM 69.8 °F - 68.0 °F 94% 29.98 in 10.0 mi ESE 4.6 mph - N/A   Overcast
8:29 AM 69.8 °F - 69.8 °F 100% 29.99 in 10.0 mi Calm Calm - N/A   Overcast
8:50 AM 69.8 °F - 69.8 °F 100% 29.99 in 10.0 mi Calm Calm - N/A   Overcast
9:09 AM 69.8 °F - 69.8 °F 100% 29.99 in 10.0 mi Calm Calm - N/A   Overcast
9:29 AM 69.8 °F - 69.8 °F 100% 29.99 in 10.0 mi ENE 3.5 mph - N/A   Overcast
9:50 AM 71.6 °F - 69.8 °F 94% 29.99 in 10.0 mi Calm Calm - N/A   Overcast
10:09 AM 71.6 °F - 69.8 °F 94% 29.99 in 10.0 mi Calm Calm - N/A   Overcast
10:29 AM 71.6 °F - 71.6 °F 100% 29.99 in 10.0 mi Calm Calm - N/A   Overcast
10:50 AM 73.4 °F - 71.6 °F 94% 29.99 in 10.0 mi Calm Calm - N/A   Mostly Cloudy
11:09 AM 75.2 °F - 73.4 °F 94% 29.99 in 10.0 mi Calm Calm - N/A   Mostly Cloudy
11:30 AM 77.0 °F - 71.6 °F 83% 29.99 in 10.0 mi Calm Calm - N/A   Scattered Clouds
11:50 AM 78.8 °F - 71.6 °F 78% 29.99 in 10.0 mi Calm Calm - N/A   Clear
12:09 PM 78.8 °F - 71.6 °F 78% 29.99 in 10.0 mi West 5.8 mph - N/A   Scattered Clouds
12:30 PM 78.8 °F - 71.6 °F 78% 29.99 in 10.0 mi WNW 4.6 mph - N/A   Scattered Clouds
12:50 PM 77.0 °F - 71.6 °F 83% 29.98 in 10.0 mi Calm Calm - N/A   Clear
1:09 PM 80.6 °F 85.4 °F 73.4 °F 79% 29.99 in 10.0 mi WNW 5.8 mph - N/A   Clear
1:30 PM 80.6 °F 84.6 °F 71.6 °F 74% 29.98 in 10.0 mi ENE 3.5 mph - N/A   Clear
1:50 PM 84.2 °F 89.6 °F 71.6 °F 66% 29.98 in 10.0 mi WNW 4.6 mph - N/A   Clear
2:09 PM 84.2 °F 89.6 °F 71.6 °F 66% 29.98 in 10.0 mi Calm Calm - N/A   Clear
2:30 PM 84.2 °F 89.6 °F 71.6 °F 66% 29.98 in 10.0 mi East 6.9 mph - N/A   Clear
2:50 PM 86.0 °F 90.4 °F 69.8 °F 58% 29.98 in 10.0 mi NNE 5.8 mph - N/A   Clear
3:09 PM 84.2 °F 88.4 °F 69.8 °F 62% 29.98 in 10.0 mi North 5.8 mph - N/A   Clear
3:30 PM 87.8 °F 93.8 °F 71.6 °F 58% 29.98 in 10.0 mi Calm Calm - N/A   Clear
3:49 PM 87.8 °F 92.6 °F 69.8 °F 55% 29.97 in 10.0 mi Calm Calm - N/A   Clear
4:09 PM 87.8 °F 92.6 °F 69.8 °F 55% 29.98 in 10.0 mi Calm Calm - N/A   Clear
4:30 PM 87.8 °F 92.6 °F 69.8 °F 55% 29.97 in 10.0 mi ESE 3.5 mph - N/A   Clear
4:50 PM 87.8 °F 93.8 °F 71.6 °F 58% 29.98 in 10.0 mi Calm Calm - N/A   Clear
5:09 PM 89.6 °F 96.2 °F 71.6 °F 55% 29.97 in 10.0 mi ENE 4.6 mph - N/A   Scattered Clouds
5:30 PM 87.8 °F 93.8 °F 71.6 °F 58% 29.97 in 10.0 mi East 3.5 mph - N/A   Mostly Cloudy
5:50 PM 86.0 °F 91.8 °F 71.6 °F 62% 29.96 in 10.0 mi SE 3.5 mph - N/A   Scattered Clouds
6:09 PM 87.8 °F 92.6 °F 69.8 °F 55% 29.96 in 10.0 mi Calm Calm - N/A   Clear
6:30 PM 87.8 °F 92.6 °F 69.8 °F 55% 29.95 in 10.0 mi East 5.8 mph - N/A   Clear
6:49 PM 84.2 °F 88.4 °F 69.8 °F 62% 29.95 in 10.0 mi SSE 3.5 mph - N/A   Scattered Clouds
7:09 PM 84.2 °F 88.4 °F 69.8 °F 62% 29.95 in 10.0 mi SE 3.5 mph - N/A   Scattered Clouds
7:30 PM 82.4 °F 87.2 °F 71.6 °F 70% 29.95 in 10.0 mi SSE 6.9 mph - N/A   Scattered Clouds
7:49 PM 82.4 °F 87.2 °F 71.6 °F 70% 29.95 in 10.0 mi SE 8.1 mph - N/A   Clear
8:09 PM 80.6 °F 84.6 °F 71.6 °F 74% 29.95 in 10.0 mi SE 5.8 mph - N/A   Clear
8:30 PM 78.8 °F - 69.8 °F 74% 29.95 in 10.0 mi SSE 5.8 mph - N/A   Clear
8:49 PM 77.0 °F - 69.8 °F 78% 29.97 in 10.0 mi SSE 4.6 mph - N/A   Clear
9:09 PM 75.2 °F - 69.8 °F 83% 29.97 in 10.0 mi SSE 4.6 mph - N/A   Clear
9:30 PM 75.2 °F - 69.8 °F 83% 29.99 in 10.0 mi Calm Calm - N/A   Clear
9:49 PM 73.4 °F - 69.8 °F 88% 30.01 in 10.0 mi SSE 4.6 mph - N/A   Clear
10:09 PM 73.4 °F - 69.8 °F 88% 30.01 in 10.0 mi SSE 3.5 mph - N/A   Clear
10:30 PM 73.4 °F - 69.8 °F 88% 30.02 in 10.0 mi Calm Calm - N/A   Clear
10:49 PM 71.6 °F - 68.0 °F 88% 30.02 in 10.0 mi SE 4.6 mph - N/A   Clear
11:09 PM 71.6 °F - 68.0 °F 88% 30.02 in 10.0 mi Calm Calm - N/A   Scattered Clouds
11:30 PM 71.6 °F - 68.0 °F 88% 30.02 in 10.0 mi SSE 5.8 mph - N/A   Mostly Cloudy
11:49 PM 71.6 °F - 68.0 °F 88% 30.02 in 10.0 mi SE 4.6 mph - N/A   Overcast